Flag for Norway Weather past 2 weeks in Bodø, Norway

Now
28 °F

Passing clouds.


Feels Like: 13 °F
Forecast: 22 / 27 °F
Wind: 28 mph from East

Location: Bodo Vi

Current Time: Dec 22, 2014 at 4:15:08 PM

Latest Report: Dec 22, 2014 at 3:50 PM


Visibility: N/A

Pressure: 29.15 "Hg

Humidity: 64%

Dew point: 18 °F

Location of BodøLocation

Historic Weather in Bodø — Graph

°F

Bodø temperature yesterday

Maximum temperature yesterday: 36 °F (at 12:50 AM)
Minimum temperature yesterday: 23 °F (at 7:20 AM)
Average temperature yesterday: 27 °F

Past Weeks' High & Low Weather Summary

 TemperatureHumidityPressure
High41 °F (Dec 16, 4:50 PM)100% (Dec 7, 7:20 PM)29.65 "Hg (Dec 7, 7:20 PM)
Low23 °F (Dec 21, 7:20 AM)48% (Dec 14, 9:20 PM)28.85 "Hg (Dec 11, 1:50 AM)
Average33 °F76%29.13 "Hg
* Reported Dec 7 2:20 PM — Dec 22 2:50 PM, Bodø, Weather by CustomWeather, © 2014

Note: Actual official high and low records may vary slightly from our data, if they occured in-between our weather recording intervals... More about our weather records

Advertising

Bodø weather history for previous 24 hours

 ConditionsComfort  
Time TempWeatherWind HumidityBarometerVisibility
2:50 PM
Dec 22
28 °FPassing clouds.29 mph59%29.15 "HgN/A
2:20 PM28 °FPassing clouds.29 mph59%29.15 "HgN/A
1:50 PM28 °FPassing clouds.30 mph59%29.15 "HgN/A
1:20 PM28 °FPassing clouds.26 mph64%29.18 "HgN/A
12:50 PM28 °FPassing clouds.29 mph59%29.18 "HgN/A
12:20 PM28 °FScattered clouds.25 mph59%29.18 "HgN/A
11:50 AM28 °FScattered clouds.32 mph59%29.18 "HgN/A
11:20 AM28 °FPassing clouds.30 mph59%29.18 "HgN/A
10:50 AM28 °FLow level haze.32 mph64%29.18 "HgN/A
10:20 AM28 °FPassing clouds.31 mph64%29.18 "HgN/A
9:50 AM28 °FPassing clouds.30 mph59%29.21 "HgN/A
9:20 AM28 °FPassing clouds.30 mph59%29.21 "HgN/A
8:50 AM28 °FLow level haze.30 mph59%29.21 "HgN/A
8:20 AM28 °FPassing clouds.29 mph59%29.21 "HgN/A
7:50 AM28 °FPassing clouds.29 mph59%29.21 "HgN/A
7:20 AM28 °FLow level haze.29 mph59%29.21 "HgN/A
6:50 AM28 °FLow level haze.30 mph59%29.21 "HgN/A
6:20 AM28 °FLow level haze.33 mph64%29.21 "HgN/A
5:50 AM28 °FLow level haze.33 mph64%29.21 "HgN/A
5:20 AM28 °FLow level haze.26 mph64%29.24 "HgN/A
4:50 AM28 °FLow level haze.26 mph64%29.24 "HgN/A
3:50 AM28 °FPassing clouds.28 mph64%29.27 "HgN/A
2:50 AM28 °FLow level haze.28 mph64%29.30 "HgN/A
1:50 AM28 °FLow level haze.26 mph59%29.30 "HgN/A
12:50 AM28 °FLow level haze.28 mph59%29.33 "HgN/A
11:50 PM
Dec 21
28 °FClear.23 mph69%29.33 "Hg10 mi
11:20 PM27 °FClear.22 mph69%29.36 "Hg10 mi
10:50 PM27 °FClear.23 mph69%29.36 "Hg10 mi
10:20 PM27 °FClear.25 mph74%29.36 "Hg10 mi
9:50 PM27 °FClear.23 mph74%29.36 "Hg10 mi
9:20 PM27 °FPassing clouds.23 mph74%29.39 "HgN/A
8:50 PM27 °FPassing clouds.20 mph74%29.39 "HgN/A
8:20 PM27 °FPassing clouds.18 mph74%29.39 "HgN/A
7:50 PM27 °FPassing clouds.20 mph74%29.39 "HgN/A
7:20 PM27 °FPassing clouds.18 mph74%29.42 "HgN/A
6:50 PM27 °FPassing clouds.18 mph74%29.42 "HgN/A
5:50 PM27 °FPassing clouds.18 mph74%29.42 "HgN/A
5:20 PM27 °FPassing clouds.17 mph74%29.45 "HgN/A
4:50 PM27 °FPassing clouds.17 mph80%29.45 "HgN/A
4:20 PM27 °FPassing clouds.16 mph80%29.45 "HgN/A
Weather by CustomWeather, © 2014

See weather overviewHow to use our weather pages